Location: Bernadets
(43.3537°N, 0.3167°E)
Time: 03:47:02
(UTC+00:00)

Cosmos 2219 Rocket - Pass Details

Date: 24 October 2021
Orbit: 827 x 848 km, 71.0° (Epoch: 29 November)

Event Time Altitude Azimuth Distance (km) Brightness Sun altitude
Rises 18:09:59 0° 157° (SSE) 3,351 5.1 -13.1°
Reaches altitude 10° 18:13:12 10° 138° (SE) 2,425 4.2 -13.7°
Enters shadow 18:15:25 16° 115° (ESE) 2,035 3.7 -14.1°
